SCP
0 0 0 0 0 0 0 0 0 0 0 0 0 0 0 0 0 0 0 0 0 0 0 0 0 0 0 0 0 0 0 0 0 0 0 0 0 0 0 0 0 0 0
0 0 0 0 0 0 0 0 0 0 0 0 0 0 0 0 0 0 0 0 0 0 0 0 0 0 0 0 0 0 0 0 0 0 0 0 0 0 0 0 0 0 0
0 0 0 0 0 0 0 0 0 0 0 0 0 0 0 0 0 0 0 0 0 0 0 0 0 0 0 0 0 0 0 0 0 0 0 0 0 0 0 0 0 0 0
0 0 0 0 0 0 0 0 0 0 0 0 0 0 0 0 0 0 0 0 0 0 0 0 0 0 0 0 0 0 0 0 0 0 0 0 0 0 0 0 0 0 0
0 0 0 0 0 0 0 0 0 0 0 0 0 0 0 0 0 0 0 0 0 0 0 0 0 0 0 0 0 0 0 0 0 0 0 0 0 0 0 0 0 0 0
0 0 0 0 0 0 0 0 0 0 0 0 0 0 0 0 0 0 0 0 0 0 0 0 0 0 0 0 0 0 0 0 0 0 0 0 0 0 0 0 0 0 0
0 0 0 0 0 0 0 0 0 0 0 0 0 0 0 0 0 0 0 0 0 0 0 0 0 0 0 0 0 0 0 0 0 0 0 0 0 0 0 0 0 0 0
0 0 0 0 0 0 0 0 0 0 0 0 0 0 0 0 0 0 0 0 0 0 0 0 0 0 0 0 0 0 0 0 0 0 0 0 0 0 0 0 0 0 0
0 0 0 0 0 0 0 0 0 0 0 0 0 0 0 0 0 0 0 0 0 0 0 0 0 0 0 0 0 0 0 0 0 0 0 0 0 0 0 0 0 0 0
0 0 0 0 0 0 0 0 0 0 0 0 0 0 0 0 0 0 0 0 0 0 0 0 0 0 0 0 0 0 0 0 0 0 0 0 0 0 0 0 0 0 0
0 0 0 0 0 0 0 0 0 0 0 0 0 0 0 0 0 0 0 0 0 0 0 0 0 0 0 0 0 0 0 0 0 0 0 0 0 0 0 0 0 0 0
0 0 0 0 0 0 0 0 0 0 0 0 0 0 0 0 0 0 0 0 0 0 0 0 0 0 0 0 0 0 0 0 0 0 0 0 0 0 0 0 0 0 0
0 0 0 0 0 0 0 0 0 0 0 0 0 0 0 0 0 0 0 0 0 0 0 0 0 0 0 0 0 0 0 0 0 0 0 0 0 0 0 0 0 0 0
0 0 0 0 0 0 0 0 0 0 0 0 0 0 0 0 0 0 0 0 0 0 0 0 0 0 0 0 0 0 0 0 0 0 0 0 0 0 0 0 0 0 0
0 0 0 0 0 0 0 0 0 0 0 0 0 0 0 0 0 0 0 0 0 0 0 0 0 0 0 0 0 0 0 0 0 0 0 0 0 0 0 0 0 0 0
0 0 0 0 0 0 0 0 0 0 0 0 0 0 0 0 0 0 0 0 0 0 0 0 0 0 0 0 0 0 0 0 0 0 0 0 0 0 0 0 0 0 0
0 0 0 0 0 0 0 0 0 0 0 0 0 0 0 0 0 0 0 0 0 0 0 0 0 0 0 0 0 0 0 0 0 0 0 0 0 0 0 0 0 0 0
0 0 0 0 0 0 0 0 0 0 0 0 0 0 0 0 0 0 0 0 0 0 0 0 0 0 0 0 0 0 0 0 0 0 0 0 0 0 0 0 0 0 0
0 0 0 0 0 0 0 0 0 0 0 0 0 0 0 0 0 0 0 0 0 0 0 0 0 0 0 0 0 0 0 0 0 0 0 0 0 0 0 0 0 0 0
0 0 0 0 0 0 0 0 0 0 0 0 0 0 0 0 0 0 0 0 0 0 0 0 0 0 0 0 0 0 0 0 0 0 0 0 0 0 0 0 0 0 0
0 0 0 0 0 0 0 0 0 0 0 0 0 0 0 0 0 0 0 0 0 0 0 0 0 0 0 0 0 0 0 0 0 0 0 0 0 0 0 0 0 0 0
0 0 0 0 0 0 0 0 0 0 0 0 0 0 0 0 0 0 0 0 0 0 0 0 0 0 0 0 0 0 0 0 0 0 0 0 0 0 0 0 0 0 0
0 0 0 0 0 0 0 0 0 0 0 0 0 0 0 0 0 0 0 0 0 0 0 0 0 0 0 0 0 0 0 0 0 0 0 0 0 0 0 0 0 0 0
0 0 0 0 0 0 0 0 0 0 0 0 0 0 0 0 0 0 0 0 0 0 0 0 0 0 0 0 0 0 0 0 0 0 0 0 0 0 0 0 0 0 0
0 0 0 0 0 0 0 0 0 0 0 0 0 0 0 0 0 0 0 0 0 0 0 0 0 0 0 0 0 0 0 0 0 0 0 0 0 0 0 0 0 0 0
0 0 0 0 0 0 0 0 0 0 0 0 0 0 0 0 0 0 0 0 0 0 0 0 0 0 0 0 0 0 0 0 0 0 0 0 0 0 0 0 0 0 0
Wind_Speed
5 4 5 6 7 8 9 9 9 9 8 8 8 7 7 7 6 6 5 4 3 3 3 3 3 4 5 5 4 4 5 5 5 5 4 4 5 5 4 4 4 4 6
6 5 6 7 8 8 9 9 9 10 9 8 8 7 7 7 7 6 6 5 4 3 3 2 3 3 4 4 4 4 4 4 5 4 4 5 5 4 4 4 3 2 6
6 6 7 7 8 9 9 9 10 10 10 9 9 8 7 7 6 6 6 6 4 3 3 3 3 2 3 3 4 4 4 4 4 4 5 4 5 5 4 4 4 4 6
6 6 6 8 8 8 9 9 9 9 9 9 9 9 8 7 7 6 6 6 5 4 4 3 3 3 2 2 3 3 3 4 4 4 5 3 3 5 5 5 5 5 6
7 6 8 7 8 8 8 9 8 9 9 9 9 8 8 7 7 6 6 6 6 5 5 4 3 3 2 2 2 2 2 3 4 6 4 3 3 4 5 5 5 5 6
7 6 8 7 8 8 8 8 8 8 8 8 8 8 8 8 7 6 6 6 6 5 5 4 4 2 2 2 1 1 2 2 4 5 4 3 3 4 4 5 5 5 6
7 6 8 8 8 8 8 8 8 8 8 8 8 8 7 7 7 7 6 6 6 5 5 4 4 3 2 1 1 0 1 1 5 4 4 3 2 3 5 5 5 6 6
6 6 7 8 8 8 8 8 8 8 8 8 8 8 7 7 7 7 7 7 6 5 5 5 4 3 3 2 1 0 0 2 4 4 4 3 2 4 6 5 6 6 7
6 5 5 5 6 7 7 7 7 7 8 8 8 8 8 8 7 7 7 7 6 5 5 4 4 4 3 3 2 1 0 2 4 3 4 3 3 5 6 6 6 7 7
5 4 4 4 4 4 5 6 6 7 7 7 7 7 6 6 6 6 6 6 6 5 4 4 4 3 3 2 2 1 1 3 5 4 3 2 2 5 7 7 7 7 7
5 4 3 3 3 3 3 4 4 5 5 4 4 5 3 3 3 3 6 6 6 5 4 3 3 3 3 1 1 2 2 3 4 3 3 2 4 6 6 7 7 7 7
6 4 3 3 2 2 2 2 1 2 2 2 2 3 2 2 2 3 3 4 5 5 4 3 3 2 2 1 1 1 2 3 3 3 2 2 5 6 7 7 7 7 7
5 4 3 3 2 2 1 1 1 1 1 1 2 2 1 1 1 2 2 2 2 3 3 2 2 1 2 2 2 2 3 3 2 3 2 2 5 6 7 7 7 7 7
5 4 3 3 2 2 1 1 1 1 0 1 1 2 1 1 2 2 2 3 3 2 3 3 2 2 3 3 3 3 4 3 3 3 2 3 6 7 8 8 8 8 8
6 5 4 3 3 2 1 1 1 0 0 0 0 1 2 1 2 2 2 2 3 3 3 3 3 3 3 3 4 4 4 5 5 5 3 4 6 8 9 9 9 9 9
7 6 5 4 3 3 2 2 1 0 0 0 0 1 1 2 2 2 3 3 3 3 4 4 4 3 3 3 4 5 5 5 5 6 5 4 6 8 10 11 11 11 11
7 6 5 4 4 3 3 2 1 1 1 1 1 1 1 2 2 3 3 3 3 4 5 4 4 3 3 4 4 5 5 6 6 6 6 5 5 7 9 11 11 12 12
7 6 5 4 4 4 3 2 2 1 1 1 1 1 2 2 3 3 3 3 4 4 4 4 4 4 4 4 4 5 5 5 7 7 6 6 6 6 7 10 11 12 12
7 7 6 5 5 4 3 3 2 2 2 2 2 2 2 3 3 3 3 3 4 4 4 4 4 4 5 5 5 5 5 6 6 7 7 7 7 7 7 7 10 12 13
7 7 6 6 5 4 3 3 2 2 2 2 2 2 3 3 3 4 3 4 4 4 4 4 5 5 5 5 6 6 6 6 6 6 7 7 7 8 8 8 7 8 11
7 7 7 6 5 4 3 3 3 3 3 2 2 3 3 3 3 4 4 4 4 4 5 6 5 6 5 5 5 6 6 6 7 6 6 6 7 7 8 8 7 7 6
8 7 7 6 5 5 4 3 3 3 3 3 3 3 3 4 4 4 5 4 5 5 6 6 5 4 4 4 4 5 5 5 4 5 6 6 7 7 7 8 8 8 7
8 8 6 6 6 5 4 3 2 2 3 3 3 3 4 4 4 5 5 5 5 6 5 6 6 6 5 5 4 4 5 5 6 5 6 6 6 6 7 7 8 8 9
8 7 6 6 5 5 5 4 5 4 4 4 4 3 4 4 5 5 5 6 6 5 6 6 6 6 6 5 5 5 6 6 6 6 5 5 7 8 8 7 8 8 9
7 6 6 6 5 5 5 5 5 5 5 4 4 5 5 4 5 5 6 5 6 5 6 7 6 6 6 6 6 6 7 7 9 8 9 8 7 7 7 8 8 8 8
6 5 5 6 5 5 5 6 6 7 6 6 6 5 5 4 4 6 6 6 6 6 6 7 7 8 7 8 7 6 7 6 7 8 10 10 9 8 8 8 8 8 7
Wind_Direction
121 105 67 72 72 68 68 67 67 65 65 66 64 65 68 70 72 71 74 86 99 112 113 125 134 135 138 138 137 148 154 150 149 151 151 148 145 145 145 147 166 163 137
120 110 88 78 76 71 69 68 66 64 62 62 63 62 63 64 64 64 63 69 81 94 108 118 119 134 139 142 143 149 158 162 163 159 163 166 160 157 154 157 192 148 149
122 115 107 82 77 73 69 67 64 62 61 60 59 59 59 58 57 56 57 58 66 77 88 93 98 106 127 140 151 157 166 166 166 167 194 194 164 163 169 166 174 171 173
119 114 98 86 81 74 69 67 65 62 59 58 56 54 55 55 52 50 51 51 52 63 72 78 83 80 87 117 140 160 179 173 166 188 211 204 184 163 183 184 184 183 183
120 111 98 90 84 76 70 67 66 63 60 57 55 52 52 51 51 48 47 48 46 54 60 64 70 77 76 91 131 149 168 177 180 215 221 214 203 169 197 198 196 199 197
120 110 100 89 85 78 71 67 65 63 60 57 53 50 48 47 45 44 42 44 44 46 51 52 51 65 76 80 113 139 150 151 204 219 219 215 212 180 204 208 205 210 211
116 105 103 88 84 79 73 68 63 60 58 55 51 47 44 42 40 39 38 37 38 38 36 38 41 50 53 70 152 151 145 190 233 226 222 217 216 192 213 219 220 217 214
117 109 103 91 82 78 74 69 65 60 56 53 50 47 43 39 37 35 34 34 31 32 32 31 32 36 35 32 30 140 200 235 240 235 232 227 216 216 221 222 224 223 221
121 114 108 105 98 87 77 69 65 62 58 54 50 45 41 38 35 33 30 27 26 24 23 19 21 20 22 20 21 36 7 271 246 238 238 239 223 227 229 227 228 228 227
128 123 119 111 101 99 94 78 68 64 60 55 50 44 40 39 34 29 23 21 18 13 11 8 3 3 3 2 6 8 314 251 241 239 243 252 254 244 240 238 233 231 231
146 141 135 122 109 94 87 88 81 75 64 58 57 45 27 21 20 22 23 16 11 5 358 350 347 336 328 321 355 357 253 242 248 249 252 290 256 254 250 246 239 238 235
168 160 151 140 125 111 97 100 84 71 63 43 37 33 23 17 10 357 24 11 359 348 338 337 320 301 295 285 246 238 249 256 251 248 260 285 258 259 258 255 245 240 237
175 166 160 156 149 139 125 109 82 63 59 45 34 28 17 7 352 343 340 344 329 322 320 317 295 310 315 311 286 267 275 266 260 256 257 265 261 261 259 260 254 247 242
182 179 174 169 169 162 157 139 134 101 60 45 33 6 1 1 346 341 334 332 326 321 316 305 298 308 300 293 280 272 270 268 268 267 258 259 264 266 262 259 260 257 251
193 189 188 187 180 174 173 188 170 122 50 50 5 2 351 343 335 329 324 320 319 318 311 304 298 300 296 296 285 271 270 272 274 270 262 252 263 267 265 263 261 256 253
198 195 190 194 190 185 192 197 201 204 221 286 332 339 333 327 321 316 316 315 313 315 310 301 296 293 290 291 288 277 267 268 266 268 268 254 252 260 264 264 261 257 253
199 194 190 192 192 194 198 204 211 213 235 258 285 289 300 308 309 306 307 307 310 310 306 299 296 288 286 284 282 280 269 263 263 263 265 262 253 250 257 264 264 263 258
197 192 187 188 192 196 200 210 213 222 233 253 269 273 284 294 299 299 298 301 305 304 303 301 296 290 285 282 280 280 275 266 260 260 259 258 259 259 255 261 265 265 264
197 190 188 190 194 199 203 212 218 230 241 252 259 271 281 288 289 289 293 296 298 296 299 298 302 294 288 285 279 277 275 270 263 262 256 258 257 260 264 259 258 263 265
198 194 194 195 200 201 206 214 218 235 244 251 260 268 275 275 280 284 283 289 293 289 293 295 295 294 288 287 283 278 274 272 264 260 256 260 260 258 262 266 261 256 258
197 198 197 201 200 201 207 218 228 239 249 253 260 270 271 273 275 276 282 288 286 285 288 293 291 290 292 291 285 284 277 264 259 260 260 265 266 264 263 264 266 266 260
198 201 202 205 204 208 218 229 240 249 259 263 264 264 267 268 271 271 275 280 283 284 284 287 287 282 286 285 283 288 284 270 249 259 259 260 264 264 261 263 266 264 265
199 201 203 205 208 214 220 224 231 242 249 248 255 259 262 267 266 265 270 275 277 278 278 281 277 274 280 283 273 273 280 281 303 265 260 261 264 268 267 265 263 265 262
200 199 202 202 208 214 216 222 229 241 252 261 265 265 267 269 270 266 267 269 271 272 274 274 271 268 267 270 271 260 264 280 284 286 267 265 274 272 273 272 267 261 259
194 194 197 199 206 211 219 226 236 245 254 260 262 263 265 266 265 266 267 267 267 268 271 271 269 265 261 261 265 267 265 267 266 272 279 279 277 272 275 276 272 264 256
187 190 198 201 211 216 223 231 238 247 252 257 260 265 268 269 268 268 267 264 265 267 269 268 265 261 259 259 259 260 262 262 264 268 276 280 282 283 279 275 270 267 261